Tracking 17152 objects as of 28-April-2015
HD Live streaming from Space Station

AVUM R/B

Track AVUM R/B now!
10-day predictions
AVUM R/B is classified as:


NORAD ID: 38086
Int'l Code: 2012-006K
Perigee: 258.5 km
Apogee: 847.4 km
Inclination: 69.5 °
Period: 95.6 minutes
Semi major axis: 6923 km
RCS: 4.0982 m2 (large)
Launch date: February 13, 2012
Source: European Space Agency (ESA)

Note: This is a ROCKET BODY
Your satellite tracking list
Your tracking list is empty




NASA's NSSDC Master Catalog

Two Line Element Set (TLE):
1 38086U 12006K   15116.85831882  .00037658  38676-5  26222-3 0  9992
2 38086 069.4852 297.1531 0425241 281.2586 209.2411 15.06850410169352

Source of the keplerian elements: AFSPC

N2YO: 336